Location: Asheville, NC
(35.6000°N, 82.5500°W)
Time: 00:14:11
(UTC-04:00)

Hubble Space Telescope - Pass Details

Date: 10 October 2017
Orbit: 537 x 541 km, 28.5° (Epoch: 22 October)

Event Time Altitude Azimuth Distance (km) Brightness Sun altitude
Exits shadow 05:08:17 13° 135° (SE) 1,616 3.5 -30.0°
Drops below altitude 10° 05:08:48 10° 131° (SE) 1,784 3.8 -29.9°
Sets 05:11:19 0° 118° (ESE) 2,675 5.0 -29.4°
